Showing default

HJS-6B, 63429

Orbit data source: Space-Track

HJS-6B, 63429 is a payload satellite owned by Zhongguo Xingwang (CN) in LEO that was launched on Tue, 01 Apr 2025 UTC via a CHANG ZHENG 2D launch vehicle from the Jiuquan Satellite Launch Center, China (JSC). Payload-class satellites include a variety of spacecraft equipped with specific instruments for various scientific and technological missions. These include communications satellites like Starlink; space stations such as the ISS; scientific satellites like the Hubble; Earth observation satellites from companies like Planet Labs, Umbra, and HawkEye 360; GPS; miniature CubeSats for education and research; and military/defense satellites.

Loading next visibility...
Identifier
63429, 2025-067B
Orbit
LEO
Country
Flag of CNCN / PRC
Related business
Manufacturer
YINNT
Mission
Operational Civil Communications
Bus & Motor
Unknown
Mass
~300 kg wet, ~300 kg dry
Launch date (UTC)
2025-04-01 (10 months ago)
Launch vehicle
CHANG ZHENG 2D
Launch site
Jiuquan Satellite Launch Center, China (JSC)
Object type
Payload
Rocket body
Debris
Shape & HBR
Box + 2 Pan, 1.1 m
Radar Cross Section
2.320 m², Large (>1 m²)

Expand to show TLE details & history
Last TLE update: 6 hours ago

TLE from 6 hours ago
0 HJS-6B
1 63429U 25067B   26034.23747117  .00011639  00000-0  31543-3 0  9990
2 63429  54.9914 264.4035 0007830  18.6708 341.4605 15.38126828 47413
Epoch: 2026-02-03T05:41Z
TLE epoch observation values (Epoch: 2026-02-03T05:41:57.509Z)
Latitude
-0.00005°
Longitude
45.49256°
Altitude
447.677 km
Speed
7.648 km/s
True Right ascension
17h 37m 36s
True Declination
0° 00' 00"
Sunlit
Object was in daylight at epoch
Visualization orbit readout
Latitude
Unknown
Longitude
Unknown
Altitude
Unknown
Speed
Unknown
Apparent Right ascension
Unknown
Apparent Declination
Unknown
Sunlit
N/A
Visualization observer readout
Local Sidereal Time
14:03:39
Azimuth
Unknown
Elevation
Unknown
Doppler factor
Unknown
Orbital elements
Apogee altitude
456.96 km
Perigee altitude
446.265 km
Semi-major axis
6,829.749 km
Eccentricity
0.00078
Inclination
54.9914°
RAAN
264.4035°
Arg. of periapsis
18.6708°
True anomaly
341.43194°
Mean anomaly
341.4605°
Eccentric anomaly
341.44622°
Mean motion
3.84535 °/min
Orbital period
93.62 mins
BSTAR
0.00031543
Loading maneuver chart data...
Computing Atmospheric mass density...
Loading historical data...
Loading historical data...
Loading historical data...
Loading historical data...
Loading historical data...
Loading historical data...
Loading historical data...
Other satellites on launch #67 in the year 2025 (2025-04-01 UTC)

Documentation

Showing up to 5 results
|